,,,PA_Meas_PMT16A,,PR_Meas_QMR101_102,,RH_Meas_QMH101,,SR_Meas_QMS101,,TA_Meas_QMH101,,GenWind,,GenWind,
date,time,status,PA,status,PR,status,RH,status,SR,status,TA,status,DirAvg,status,SpdAvg,
2010-05-06, 00:00:04,VALID,999.454,VALID,0,VALID,92.9288,VALID,0,VALID,24.0134,VALID,346,VALID,0.652734,
2010-05-06, 00:01:04,VALID,999.407,VALID,0,VALID,92.9517,VALID,0,VALID,23.9939,VALID,301,VALID,0.691406,
2010-05-06, 00:02:04,VALID,999.424,VALID,0,VALID,93.0737,VALID,0,VALID,24.0525,VALID,268,VALID,0.812109,
2010-05-06, 00:03:04,VALID,999.376,VALID,0,VALID,93.1271,VALID,0,VALID,24.0525,VALID,251,VALID,0.548047,
2010-05-06, 00:04:04,VALID,999.367,VALID,0,VALID,93.1424,VALID,0,VALID,24.0329,VALID,253,VALID,0.287109,
2010-05-06, 00:05:04,VALID,999.343,VALID,0,VALID,93.0127,VALID,0,VALID,23.9744,VALID,11,VALID,0.600781,
2010-05-06, 00:06:04,VALID,999.327,VALID,0,VALID,93.0127,VALID,0,VALID,23.9549,VALID,11,VALID,0.773828,
2010-05-06, 00:07:04,VALID,999.317,VALID,0,VALID,93.1043,VALID,0,VALID,23.9549,VALID,11,VALID,0.1625,
2010-05-06, 00:08:04,VALID,999.286,VALID,0,VALID,93.1577,VALID,0,VALID,23.9744,VALID,11,VALID,0.157813,
2010-05-06, 00:09:04,VALID,999.259,VALID,0,VALID,93.1729,VALID,0,VALID,23.9744,VALID,277,VALID,0.494531,
2010-05-06, 00:10:04,VALID,999.236,VALID,0,VALID,93.2416,VALID,0,VALID,23.9939,VALID,255,VALID,0.708203,
2010-05-06, 00:11:04,VALID,999.222,VALID,0,VALID,93.2416,VALID,0,VALID,23.9726,VALID,269,VALID,0.612109,
2010-05-06, 00:12:04,VALID,999.238,VALID,0,VALID,93.2797,VALID,0,VALID,23.9939,VALID,281,VALID,0.398828,
2010-05-06, 00:13:04,VALID,999.198,VALID,0,VALID,93.2797,VALID,0,VALID,23.9726,VALID,281,VALID,0.326953,
2010-05-06, 00:14:04,VALID,999.223,VALID,0,VALID,93.2797,VALID,0,VALID,23.9531,VALID,281,VALID,0.413281,
2010-05-06, 00:15:04,VALID,999.233,VALID,0,VALID,93.2874,VALID,0,VALID,23.9744,VALID,281,VALID,0.0488281,
2010-05-06, 00:16:04,VALID,999.207,VALID,0,VALID,93.2645,VALID,0,VALID,23.9531,VALID,281,VALID,0.33125,
2010-05-06, 00:17:04,VALID,999.217,VALID,0,VALID,93.2797,VALID,0,VALID,23.9531,VALID,281,VALID,0.396484,
2010-05-06, 00:18:04,VALID,999.212,VALID,0,VALID,93.295,VALID,0,VALID,23.9531,VALID,281,VALID,0.313672,
2010-05-06, 00:19:04,VALID,999.213,VALID,0,VALID,93.3255,VALID,0,VALID,23.9549,VALID,281,VALID,0.296875,
2010-05-06, 00:20:04,VALID,999.192,VALID,0,VALID,93.3026,VALID,0,VALID,23.9549,VALID,281,VALID,0.168359,
2010-05-06, 00:21:04,VALID,999.173,VALID,0,VALID,93.3255,VALID,0,VALID,23.9549,VALID,281,VALID,0.374219,
2010-05-06, 00:22:04,VALID,999.132,VALID,0,VALID,93.3103,VALID,0,VALID,23.9549,VALID,281,VALID,0.590625,
2010-05-06, 00:23:04,VALID,999.115,VALID,0,VALID,93.3637,VALID,0,VALID,23.9354,VALID,281,VALID,0.0191406,
2010-05-06, 00:24:04,VALID,999.122,VALID,0,VALID,93.356,VALID,0,VALID,23.9354,VALID,281,VALID,0,
2010-05-06, 00:25:04,VALID,999.08,VALID,0,VALID,93.3713,VALID,0,VALID,23.9549,VALID,204,VALID,0.7125,
2010-05-06, 00:26:04,VALID,999.039,VALID,0,VALID,93.3942,VALID,0,VALID,23.9939,VALID,223,VALID,0.739453,
2010-05-06, 00:27:04,VALID,999.007,VALID,0,VALID,93.3942,VALID,0,VALID,23.9939,VALID,212,VALID,0.608594,
2010-05-06, 00:28:04,VALID,999.016,VALID,0,VALID,93.4018,VALID,0,VALID,23.9939,VALID,211,VALID,0.328906,
2010-05-06, 00:29:04,VALID,999.006,VALID,0,VALID,93.3637,VALID,0,VALID,23.9744,VALID,186,VALID,0.631641,
2010-05-06, 00:30:04,VALID,999.005,VALID,0,VALID,93.356,VALID,0,VALID,23.9726,VALID,168,VALID,1.11641,
2010-05-06, 00:31:04,VALID,999.037,VALID,0,VALID,93.356,VALID,0,VALID,24.0134,VALID,165,VALID,1.16367,
2010-05-06, 00:32:04,VALID,999.036,VALID,0,VALID,93.3331,VALID,0,VALID,24.0329,VALID,173,VALID,0.720703,
2010-05-06, 00:33:04,VALID,999.033,VALID,0,VALID,93.3026,VALID,0,VALID,24.0311,VALID,188,VALID,0.639453,
2010-05-06, 00:34:04,VALID,999.038,VALID,0,VALID,93.2645,VALID,0,VALID,24.0525,VALID,188,VALID,0.544141,
2010-05-06, 00:35:04,VALID,999.032,VALID,0,VALID,93.2111,VALID,0,VALID,24.072,VALID,186,VALID,0.594531,
2010-05-06, 00:36:04,VALID,999.001,VALID,0,VALID,93.1348,VALID,0,VALID,24.0311,VALID,154,VALID,0.974219,
2010-05-06, 00:37:04,VALID,998.975,VALID,0,VALID,93.0432,VALID,0,VALID,24.0525,VALID,154,VALID,0.896875,
2010-05-06, 00:38:04,VALID,998.952,VALID,0,VALID,93.0127,VALID,0,VALID,24.0329,VALID,155,VALID,0.930859,
2010-05-06, 00:39:04,VALID,998.918,VALID,0,VALID,93.0051,VALID,0,VALID,24.0116,VALID,178,VALID,1.02305,
2010-05-06, 00:40:04,VALID,998.886,VALID,0,VALID,93.028,VALID,0,VALID,24.0525,VALID,187,VALID,0.968359,
2010-05-06, 00:41:04,VALID,998.854,VALID,0,VALID,93.0051,VALID,0,VALID,24.072,VALID,191,VALID,1.00586,
2010-05-06, 00:42:04,VALID,998.85,VALID,0,VALID,92.9745,VALID,0,VALID,24.0701,VALID,191,VALID,0.702344,
2010-05-06, 00:43:04,VALID,998.814,VALID,0,VALID,92.9669,VALID,0,VALID,24.0915,VALID,191,VALID,0.253516,
2010-05-06, 00:44:04,VALID,998.806,VALID,0,VALID,92.9288,VALID,0,VALID,24.0506,VALID,191,VALID,0.116797,
2010-05-06, 00:45:04,VALID,998.823,VALID,0,VALID,92.7991,VALID,0,VALID,24.0311,VALID,31,VALID,0.650781,
2010-05-06, 00:46:04,VALID,998.805,VALID,0,VALID,92.738,VALID,0,VALID,23.9921,VALID,31,VALID,0.701172,
2010-05-06, 00:47:04,VALID,998.846,VALID,0,VALID,92.6388,VALID,0,VALID,23.9549,VALID,54,VALID,0.4875,
2010-05-06, 00:48:04,VALID,998.819,VALID,0,VALID,92.5397,VALID,0,VALID,23.9159,VALID,101,VALID,0.526953,
2010-05-06, 00:49:04,VALID,998.797,VALID,0,VALID,92.5549,VALID,0,VALID,23.8573,VALID,155,VALID,0.4375,
2010-05-06, 00:50:04,VALID,998.777,VALID,0,VALID,92.6617,VALID,0,VALID,23.8378,VALID,158,VALID,0.622266,
2010-05-06, 00:51:04,VALID,998.76,VALID,0,VALID,92.738,VALID,0,VALID,23.8378,VALID,158,VALID,0.857031,
2010-05-06, 00:52:04,VALID,998.713,VALID,0,VALID,92.8067,VALID,0,VALID,23.8165,VALID,159,VALID,0.988672,
2010-05-06, 00:53:04,VALID,998.679,VALID,0,VALID,92.8296,VALID,0,VALID,23.836,VALID,161,VALID,1.00078,
2010-05-06, 00:54:04,VALID,998.683,VALID,0,VALID,92.7991,VALID,0,VALID,23.8555,VALID,161,VALID,0.876172,
2010-05-06, 00:55:04,VALID,998.654,VALID,0,VALID,92.7457,VALID,0,VALID,23.875,VALID,161,VALID,1.01992,
2010-05-06, 00:56:04,VALID,998.642,VALID,0,VALID,92.6617,VALID,0,VALID,23.9159,VALID,160,VALID,0.759375,
2010-05-06, 00:57:04,VALID,998.66,VALID,0,VALID,92.6541,VALID,0,VALID,23.9354,VALID,161,VALID,0.494922,
2010-05-06, 00:58:04,VALID,998.682,VALID,0,VALID,92.5854,VALID,0,VALID,23.9354,VALID,161,VALID,0.0195313,
2010-05-06, 00:59:04,VALID,998.638,VALID,0,VALID,92.5244,VALID,0,VALID,23.9549,VALID,161,VALID,0,
2010-05-06, 01:00:04,VALID,998.612,VALID,0,VALID,92.471,VALID,0,VALID,23.8945,VALID,161,VALID,0,
2010-05-06, 01:01:04,VALID,998.561,VALID,0,VALID,92.5091,VALID,0,VALID,23.9159,VALID,161,VALID,0,
2010-05-06, 01:02:04,VALID,998.569,VALID,0,VALID,92.5778,VALID,0,VALID,23.9159,VALID,161,VALID,0,
2010-05-06, 01:03:04,VALID,998.517,VALID,0,VALID,92.6312,VALID,0,VALID,23.9354,VALID,161,VALID,0.629297,
2010-05-06, 01:04:04,VALID,998.519,VALID,0,VALID,92.5854,VALID,0,VALID,23.8945,VALID,161,VALID,0.553906,
2010-05-06, 01:05:04,VALID,998.501,VALID,0,VALID,92.6465,VALID,0,VALID,23.8963,VALID,161,VALID,0.510547,
2010-05-06, 01:06:04,VALID,998.474,VALID,0,VALID,92.6923,VALID,0,VALID,23.8963,VALID,161,VALID,0.414453,
2010-05-06, 01:07:04,VALID,998.492,VALID,0,VALID,92.6846,VALID,0,VALID,23.8945,VALID,161,VALID,0.267578,
2010-05-06, 01:08:04,VALID,998.498,VALID,0,VALID,92.7304,VALID,0,VALID,23.8963,VALID,161,VALID,0.254687,
2010-05-06, 01:09:04,VALID,998.495,VALID,0,VALID,92.6999,VALID,0,VALID,23.875,VALID,161,VALID,0.203125,
2010-05-06, 01:10:04,VALID,998.536,VALID,0,VALID,92.7304,VALID,0,VALID,23.8768,VALID,161,VALID,0.114453,
2010-05-06, 01:11:04,VALID,998.503,VALID,0,VALID,92.8143,VALID,0,VALID,23.8768,VALID,161,VALID,0.980469,
2010-05-06, 01:12:04,VALID,998.544,VALID,0,VALID,92.8983,VALID,0,VALID,23.8963,VALID,165,VALID,0.897656,
2010-05-06, 01:13:04,VALID,998.551,VALID,0,VALID,92.9593,VALID,0,VALID,23.9354,VALID,168,VALID,1.17656,
2010-05-06, 01:14:04,VALID,998.493,VALID,0,VALID,92.9745,VALID,0,VALID,23.9549,VALID,170,VALID,1.17422,
2010-05-06, 01:15:04,VALID,998.526,VALID,0,VALID,93.0661,VALID,0,VALID,23.9744,VALID,189,VALID,1.02617,
2010-05-06, 01:16:04,VALID,998.519,VALID,0,VALID,93.0737,VALID,0,VALID,23.9939,VALID,190,VALID,0.501953,
2010-05-06, 01:17:04,VALID,998.524,VALID,0,VALID,93.0508,VALID,0,VALID,23.9939,VALID,183,VALID,0.746094,
2010-05-06, 01:18:04,VALID,998.526,VALID,0,VALID,93.0508,VALID,0,VALID,23.9939,VALID,183,VALID,0.773438,
2010-05-06, 01:19:04,VALID,998.504,VALID,0,VALID,93.0432,VALID,0,VALID,24.0134,VALID,183,VALID,0.892578,
2010-05-06, 01:20:04,VALID,998.492,VALID,0,VALID,93.028,VALID,0,VALID,24.0134,VALID,175,VALID,0.873438,
2010-05-06, 01:21:04,VALID,998.475,VALID,0,VALID,92.9898,VALID,0,VALID,24.0134,VALID,174,VALID,1.02227,
2010-05-06, 01:22:04,VALID,998.431,VALID,0,VALID,92.9517,VALID,0,VALID,24.0134,VALID,173,VALID,0.809375,
2010-05-06, 01:23:04,VALID,998.434,VALID,0,VALID,92.8906,VALID,0,VALID,23.9939,VALID,182,VALID,0.992969,
2010-05-06, 01:24:04,VALID,998.401,VALID,0,VALID,92.8601,VALID,0,VALID,23.9744,VALID,182,VALID,0.854297,
2010-05-06, 01:25:04,VALID,998.414,VALID,0,VALID,92.8754,VALID,0,VALID,23.9726,VALID,184,VALID,0.545703,
2010-05-06, 01:26:04,VALID,998.405,VALID,0,VALID,92.8754,VALID,0,VALID,23.9921,VALID,184,VALID,0.435937,
2010-05-06, 01:27:04,VALID,998.405,VALID,0,VALID,92.8754,VALID,0,VALID,23.9921,VALID,228,VALID,0.544922,
2010-05-06, 01:28:04,VALID,998.424,VALID,0,VALID,92.8143,VALID,0,VALID,24.0134,VALID,298,VALID,0.823828,
2010-05-06, 01:29:04,VALID,998.376,VALID,0,VALID,92.7075,VALID,0,VALID,23.9744,VALID,299,VALID,0.513672,
2010-05-06, 01:30:04,VALID,998.366,VALID,0,VALID,92.6236,VALID,0,VALID,23.914,VALID,299,VALID,0.301172,
2010-05-06, 01:31:04,VALID,998.389,VALID,0,VALID,92.6083,VALID,0,VALID,23.8963,VALID,299,VALID,0.270312,
2010-05-06, 01:32:04,VALID,998.335,VALID,0,VALID,92.6312,VALID,0,VALID,23.8573,VALID,299,VALID,0,
2010-05-06, 01:33:04,VALID,998.352,VALID,0,VALID,92.6541,VALID,0,VALID,23.8378,VALID,295,VALID,0.122266,
2010-05-06, 01:34:04,VALID,998.333,VALID,0,VALID,92.738,VALID,0,VALID,23.8378,VALID,278,VALID,0.453906,
2010-05-06, 01:35:04,VALID,998.351,VALID,0,VALID,92.8143,VALID,0,VALID,23.8378,VALID,278,VALID,0.373047,
2010-05-06, 01:36:04,VALID,998.358,VALID,0,VALID,92.8372,VALID,0,VALID,23.8573,VALID,278,VALID,0.009375,
2010-05-06, 01:37:04,VALID,998.373,VALID,0,VALID,92.8448,VALID,0,VALID,23.8378,VALID,278,VALID,0.00859375,
2010-05-06, 01:38:04,VALID,998.334,VALID,0,VALID,92.8372,VALID,0,VALID,23.8378,VALID,278,VALID,0,
2010-05-06, 01:39:04,VALID,998.357,VALID,0,VALID,92.822,VALID,0,VALID,23.8183,VALID,278,VALID,0,
2010-05-06, 01:40:04,VALID,998.365,VALID,0,VALID,92.7991,VALID,0,VALID,23.7988,VALID,278,VALID,0,
2010-05-06, 01:41:04,VALID,998.345,VALID,0,VALID,92.7838,VALID,0,VALID,23.7793,VALID,278,VALID,0,
2010-05-06, 01:42:04,VALID,998.347,VALID,0,VALID,92.8372,VALID,0,VALID,23.7793,VALID,203,VALID,0.548828,
2010-05-06, 01:43:04,VALID,998.344,VALID,0,VALID,92.8677,VALID,0,VALID,23.7793,VALID,192,VALID,0.490625,
2010-05-06, 01:44:04,VALID,998.35,VALID,0,VALID,92.9059,VALID,0,VALID,23.7793,VALID,180,VALID,0.790625,
2010-05-06, 01:45:04,VALID,998.36,VALID,0,VALID,92.9135,VALID,0,VALID,23.7988,VALID,179,VALID,0.910547,
2010-05-06, 01:46:04,VALID,998.36,VALID,0,VALID,92.883,VALID,0,VALID,23.8183,VALID,171,VALID,0.677344,
2010-05-06, 01:47:04,VALID,998.329,VALID,0,VALID,92.7991,VALID,0,VALID,23.8183,VALID,157,VALID,0.841406,
2010-05-06, 01:48:04,VALID,998.352,VALID,0,VALID,92.6694,VALID,0,VALID,23.8183,VALID,151,VALID,1.20977,
2010-05-06, 01:49:04,VALID,998.346,VALID,0,VALID,92.5702,VALID,0,VALID,23.8183,VALID,149,VALID,1.08438,
2010-05-06, 01:50:04,VALID,998.3,VALID,0,VALID,92.5015,VALID,0,VALID,23.8396,VALID,149,VALID,1.0457,
2010-05-06, 01:51:04,VALID,998.305,VALID,0,VALID,92.471,VALID,0,VALID,23.8183,VALID,151,VALID,0.992969,
2010-05-06, 01:52:04,VALID,998.268,VALID,0,VALID,92.4405,VALID,0,VALID,23.7988,VALID,156,VALID,1.24102,
2010-05-06, 01:53:04,VALID,998.239,VALID,0,VALID,92.4557,VALID,0,VALID,23.8396,VALID,173,VALID,1.2332,
2010-05-06, 01:54:04,VALID,998.215,VALID,0,VALID,92.4863,VALID,0,VALID,23.8201,VALID,179,VALID,1.14141,
2010-05-06, 01:55:04,VALID,998.219,VALID,0,VALID,92.5015,VALID,0,VALID,23.8183,VALID,178,VALID,1.05195,
2010-05-06, 01:56:04,VALID,998.231,VALID,0,VALID,92.4786,VALID,0,VALID,23.7988,VALID,172,VALID,1.08867,
2010-05-06, 01:57:04,VALID,998.203,VALID,0,VALID,92.4176,VALID,0,VALID,23.7988,VALID,175,VALID,1.27695,
2010-05-06, 01:58:04,VALID,998.227,VALID,0,VALID,92.4481,VALID,0,VALID,23.7988,VALID,177,VALID,0.905469,
2010-05-06, 01:59:04,VALID,998.164,VALID,0,VALID,92.4328,VALID,0,VALID,23.8183,VALID,186,VALID,1.05977,
2010-05-06, 02:00:04,VALID,998.195,VALID,0,VALID,92.3642,VALID,0,VALID,23.8378,VALID,185,VALID,1.00273,
2010-05-06, 02:01:04,VALID,998.165,VALID,0,VALID,92.3413,VALID,0,VALID,23.8573,VALID,187,VALID,0.800391,
2010-05-06, 02:02:04,VALID,998.157,VALID,0,VALID,92.2955,VALID,0,VALID,23.8768,VALID,195,VALID,0.598437,
2010-05-06, 02:03:04,VALID,998.175,VALID,0,VALID,92.2345,VALID,0,VALID,23.8768,VALID,199,VALID,0.958594,
2010-05-06, 02:04:04,VALID,998.164,VALID,0,VALID,92.1811,VALID,0,VALID,23.8963,VALID,199,VALID,0.878125,
2010-05-06, 02:05:04,VALID,998.168,VALID,0,VALID,92.1506,VALID,0,VALID,23.9159,VALID,198,VALID,0.674609,
2010-05-06, 02:06:04,VALID,998.146,VALID,0,VALID,92.1048,VALID,0,VALID,23.9354,VALID,198,VALID,0.538281,
2010-05-06, 02:07:04,VALID,998.18,VALID,0,VALID,92.0361,VALID,0,VALID,23.9354,VALID,198,VALID,0.433984,
2010-05-06, 02:08:04,VALID,998.166,VALID,0,VALID,91.998,VALID,0,VALID,23.9354,VALID,198,VALID,0,
2010-05-06, 02:09:04,VALID,998.15,VALID,0,VALID,91.9522,VALID,0,VALID,23.9549,VALID,198,VALID,0,
2010-05-06, 02:10:04,VALID,998.125,VALID,0,VALID,91.9217,VALID,0,VALID,23.9549,VALID,198,VALID,0,
2010-05-06, 02:11:04,VALID,998.111,VALID,0,VALID,91.9064,VALID,0,VALID,23.9159,VALID,191,VALID,0,
2010-05-06, 02:12:04,VALID,998.118,VALID,0,VALID,91.8988,VALID,0,VALID,23.8963,VALID,168,VALID,0,
2010-05-06, 02:13:04,VALID,998.074,VALID,0,VALID,91.6699,VALID,0,VALID,23.8573,VALID,127,VALID,0,
2010-05-06, 02:14:04,VALID,998.053,VALID,0,VALID,91.7538,VALID,0,VALID,23.7988,VALID,141,VALID,0,
2010-05-06, 02:15:04,VALID,998.009,VALID,0,VALID,91.914,VALID,0,VALID,23.7597,VALID,163,VALID,0,
2010-05-06, 02:16:04,VALID,998.004,VALID,0,VALID,92.2421,VALID,0,VALID,23.7597,VALID,182,VALID,0,
2010-05-06, 02:17:04,VALID,997.985,VALID,0,VALID,92.3718,VALID,0,VALID,23.7384,VALID,188,VALID,0,
2010-05-06, 02:18:04,VALID,997.976,VALID,0,VALID,92.4481,VALID,0,VALID,23.7793,VALID,198,VALID,0,
2010-05-06, 02:19:04,VALID,997.983,VALID,0,VALID,92.5626,VALID,0,VALID,23.7988,VALID,182,VALID,0,
2010-05-06, 02:20:04,VALID,997.978,VALID,0,VALID,92.5473,VALID,0,VALID,23.7793,VALID,169,VALID,0,
2010-05-06, 02:21:04,VALID,997.917,VALID,0,VALID,92.5091,VALID,0,VALID,23.7597,VALID,161,VALID,0,
2010-05-06, 02:22:04,VALID,997.916,VALID,0,VALID,92.5778,VALID,0,VALID,23.7793,VALID,181,VALID,0,
2010-05-06, 02:23:04,VALID,997.901,VALID,0,VALID,92.6007,VALID,0,VALID,23.7775,VALID,181,VALID,0,
2010-05-06, 02:24:04,VALID,997.875,VALID,0,VALID,92.5854,VALID,0,VALID,23.7988,VALID,182,VALID,0,
2010-05-06, 02:25:04,VALID,997.85,VALID,0,VALID,92.5244,VALID,0,VALID,23.7793,VALID,173,VALID,0,
2010-05-06, 02:26:04,VALID,997.839,VALID,0,VALID,92.265,VALID,0,VALID,23.7402,VALID,114,VALID,0,
2010-05-06, 02:27:04,VALID,997.821,VALID,0,VALID,92.2955,VALID,0,VALID,23.7012,VALID,118,VALID,0.628516,
2010-05-06, 02:28:04,VALID,997.834,VALID,0,VALID,92.3489,VALID,0,VALID,23.6817,VALID,115,VALID,0,
2010-05-06, 02:29:04,VALID,997.808,VALID,0,VALID,92.4023,VALID,0,VALID,23.7012,VALID,149,VALID,0,
2010-05-06, 02:30:04,VALID,997.77,VALID,0,VALID,92.5015,VALID,0,VALID,23.7012,VALID,182,VALID,0,
2010-05-06, 02:31:04,VALID,997.758,VALID,0,VALID,92.4557,VALID,0,VALID,23.7207,VALID,255,VALID,0,
2010-05-06, 02:32:04,VALID,997.787,VALID,0,VALID,92.4176,VALID,0,VALID,23.7012,VALID,256,VALID,0,
2010-05-06, 02:33:04,VALID,997.781,VALID,0,VALID,92.3184,VALID,0,VALID,23.6604,VALID,289,VALID,0,
2010-05-06, 02:34:04,VALID,997.763,VALID,0,VALID,92.0209,VALID,0,VALID,23.6036,VALID,27,VALID,0,
2010-05-06, 02:35:04,VALID,997.765,VALID,0,VALID,92.0437,VALID,0,VALID,23.5451,VALID,27,VALID,0,
2010-05-06, 02:36:04,VALID,997.757,VALID,0,VALID,92.1353,VALID,0,VALID,23.5061,VALID,27,VALID,0,
2010-05-06, 02:37:04,VALID,997.724,VALID,0,VALID,92.1048,VALID,0,VALID,23.4671,VALID,27,VALID,0,
2010-05-06, 02:38:04,VALID,997.736,VALID,0,VALID,92.3108,VALID,0,VALID,23.428,VALID,27,VALID,0,
2010-05-06, 02:39:04,VALID,997.689,VALID,0,VALID,92.6007,VALID,0,VALID,23.4671,VALID,27,VALID,0,
2010-05-06, 02:40:04,VALID,997.724,VALID,0,VALID,92.6694,VALID,0,VALID,23.4866,VALID,27,VALID,0,
2010-05-06, 02:41:04,VALID,997.66,VALID,0,VALID,92.7685,VALID,0,VALID,23.5061,VALID,27,VALID,0,
2010-05-06, 02:42:04,VALID,997.66,VALID,0,VALID,92.7533,VALID,0,VALID,23.4866,VALID,27,VALID,0,
2010-05-06, 02:43:04,VALID,997.637,VALID,0,VALID,92.7228,VALID,0,VALID,23.4866,VALID,27,VALID,0,
2010-05-06, 02:44:04,VALID,997.679,VALID,0,VALID,92.5091,VALID,0,VALID,23.4067,VALID,39,VALID,0,
2010-05-06, 02:45:04,VALID,997.68,VALID,0,VALID,92.6923,VALID,0,VALID,23.3872,VALID,43,VALID,0,
2010-05-06, 02:46:04,VALID,997.666,VALID,0,VALID,92.7991,VALID,0,VALID,23.428,VALID,43,VALID,0,
2010-05-06, 02:47:04,VALID,997.672,VALID,0,VALID,92.8677,VALID,0,VALID,23.428,VALID,43,VALID,0,
2010-05-06, 02:48:04,VALID,997.693,VALID,0,VALID,92.8296,VALID,0,VALID,23.428,VALID,43,VALID,0,
2010-05-06, 02:49:04,VALID,997.693,VALID,0,VALID,92.7609,VALID,0,VALID,23.3695,VALID,43,VALID,0,
2010-05-06, 02:50:04,VALID,997.669,VALID,0,VALID,92.9364,VALID,0,VALID,23.4103,VALID,43,VALID,0,
2010-05-06, 02:51:04,VALID,997.663,VALID,0,VALID,92.944,VALID,0,VALID,23.389,VALID,147,VALID,0,
2010-05-06, 02:52:04,VALID,997.701,VALID,0,VALID,93.0585,VALID,0,VALID,23.4475,VALID,147,VALID,0,
2010-05-06, 02:53:04,VALID,997.682,VALID,0,VALID,93.0432,VALID,0,VALID,23.4263,VALID,147,VALID,0,
2010-05-06, 02:54:04,VALID,997.68,VALID,0,VALID,92.9135,VALID,0,VALID,23.428,VALID,147,VALID,0,
2010-05-06, 02:55:04,VALID,997.659,VALID,0,VALID,92.8372,VALID,0,VALID,23.3695,VALID,147,VALID,0,
2010-05-06, 02:56:04,VALID,997.674,VALID,0,VALID,92.8525,VALID,0,VALID,23.35,VALID,147,VALID,0,
2010-05-06, 02:57:04,VALID,997.651,VALID,0,VALID,92.9059,VALID,0,VALID,23.3482,VALID,147,VALID,0,
2010-05-06, 02:58:04,VALID,997.663,VALID,0,VALID,92.7457,VALID,0,VALID,23.311,VALID,147,VALID,0,
2010-05-06, 02:59:04,VALID,997.622,VALID,0,VALID,92.7304,VALID,0,VALID,23.2719,VALID,147,VALID,0,
2010-05-06, 03:00:04,VALID,997.638,VALID,0,VALID,92.7685,VALID,0,VALID,23.2507,VALID,147,VALID,0,
2010-05-06, 03:01:04,VALID,997.607,VALID,0,VALID,92.8372,VALID,0,VALID,23.2719,VALID,147,VALID,0,
2010-05-06, 03:02:04,VALID,997.583,VALID,0,VALID,92.9211,VALID,0,VALID,23.2524,VALID,147,VALID,0,
2010-05-06, 03:03:04,VALID,997.567,VALID,0,VALID,92.9974,VALID,0,VALID,23.2507,VALID,147,VALID,0,
2010-05-06, 03:04:04,VALID,997.528,VALID,0,VALID,93.0432,VALID,0,VALID,23.2915,VALID,147,VALID,0,
2010-05-06, 03:05:04,VALID,997.532,VALID,0,VALID,93.1348,VALID,0,VALID,23.311,VALID,147,VALID,0,
2010-05-06, 03:06:04,VALID,997.505,VALID,0,VALID,93.1958,VALID,0,VALID,23.3092,VALID,147,VALID,0,
2010-05-06, 03:07:04,VALID,997.493,VALID,0,VALID,93.2187,VALID,0,VALID,23.35,VALID,147,VALID,0,
2010-05-06, 03:08:04,VALID,997.492,VALID,0,VALID,93.2568,VALID,0,VALID,23.35,VALID,147,VALID,0,
2010-05-06, 03:09:04,VALID,997.479,VALID,0,VALID,93.1958,VALID,0,VALID,23.3305,VALID,147,VALID,0,
2010-05-06, 03:10:04,VALID,997.481,VALID,0,VALID,93.1805,VALID,0,VALID,23.311,VALID,147,VALID,0,
2010-05-06, 03:11:04,VALID,997.488,VALID,0,VALID,93.1424,VALID,0,VALID,23.2915,VALID,147,VALID,0,
2010-05-06, 03:12:04,VALID,997.473,VALID,0,VALID,93.0737,VALID,0,VALID,23.2719,VALID,129,VALID,0.720312,
2010-05-06, 03:13:04,VALID,997.476,VALID,0,VALID,93.0432,VALID,0,VALID,23.2117,VALID,150,VALID,1.01797,
2010-05-06, 03:14:04,VALID,997.501,VALID,0,VALID,93.1119,VALID,0,VALID,23.2312,VALID,159,VALID,1.1918,
2010-05-06, 03:15:04,VALID,997.505,VALID,0,VALID,93.1729,VALID,0,VALID,23.2507,VALID,165,VALID,0.992578,
2010-05-06, 03:16:04,VALID,997.507,VALID,0,VALID,93.2263,VALID,0,VALID,23.2719,VALID,165,VALID,1.21875,
2010-05-06, 03:17:04,VALID,997.489,VALID,0,VALID,93.2721,VALID,0,VALID,23.311,VALID,167,VALID,1.10703,
2010-05-06, 03:18:04,VALID,997.485,VALID,0,VALID,93.2645,VALID,0,VALID,23.3305,VALID,174,VALID,1.10195,
2010-05-06, 03:19:04,VALID,997.503,VALID,0,VALID,93.3179,VALID,0,VALID,23.3695,VALID,177,VALID,0.844141,
2010-05-06, 03:20:04,VALID,997.469,VALID,0,VALID,93.295,VALID,0,VALID,23.3695,VALID,177,VALID,0.638672,
2010-05-06, 03:21:04,VALID,997.484,VALID,0,VALID,93.2263,VALID,0,VALID,23.3695,VALID,177,VALID,0.725781,
2010-05-06, 03:22:04,VALID,997.502,VALID,0,VALID,93.1882,VALID,0,VALID,23.35,VALID,170,VALID,0.932031,
2010-05-06, 03:23:04,VALID,997.479,VALID,0,VALID,93.1882,VALID,0,VALID,23.3305,VALID,168,VALID,0.760547,
2010-05-06, 03:24:04,VALID,997.5,VALID,0,VALID,93.15,VALID,0,VALID,23.3305,VALID,156,VALID,0.648828,
2010-05-06, 03:25:04,VALID,997.497,VALID,0,VALID,93.0661,VALID,0,VALID,23.2897,VALID,150,VALID,0.493359,
2010-05-06, 03:26:04,VALID,997.495,VALID,0,VALID,93.028,VALID,0,VALID,23.2915,VALID,150,VALID,0.478906,
2010-05-06, 03:27:04,VALID,997.486,VALID,0,VALID,93.0661,VALID,0,VALID,23.2719,VALID,142,VALID,0.59375,
2010-05-06, 03:28:04,VALID,997.42,VALID,0,VALID,93.1653,VALID,0,VALID,23.2702,VALID,139,VALID,0.401563,
2010-05-06, 03:29:04,VALID,997.385,VALID,0,VALID,93.2263,VALID,0,VALID,23.2897,VALID,89,VALID,0.494531,
2010-05-06, 03:30:04,VALID,997.375,VALID,0,VALID,93.2187,VALID,0,VALID,23.311,VALID,83,VALID,0.319922,
2010-05-06, 03:31:04,VALID,997.378,VALID,0,VALID,93.1805,VALID,0,VALID,23.2702,VALID,82,VALID,0.202344,
2010-05-06, 03:32:04,VALID,997.39,VALID,0,VALID,93.1805,VALID,0,VALID,23.2524,VALID,356,VALID,0.730859,
2010-05-06, 03:33:04,VALID,997.383,VALID,0,VALID,93.1882,VALID,0,VALID,23.2524,VALID,356,VALID,0.529297,
2010-05-06, 03:34:04,VALID,997.371,VALID,0,VALID,93.1882,VALID,0,VALID,23.2329,VALID,356,VALID,0.488672,
2010-05-06, 03:35:04,VALID,997.364,VALID,0,VALID,93.2492,VALID,0,VALID,23.2117,VALID,356,VALID,0.366406,
2010-05-06, 03:36:04,VALID,997.368,VALID,0,VALID,93.2187,VALID,0,VALID,23.2134,VALID,356,VALID,0.355078,
2010-05-06, 03:37:04,VALID,997.371,VALID,0,VALID,93.1653,VALID,0,VALID,23.1531,VALID,356,VALID,0,
2010-05-06, 03:38:04,VALID,997.328,VALID,0,VALID,93.1729,VALID,0,VALID,23.1354,VALID,356,VALID,0,
2010-05-06, 03:39:04,VALID,997.293,VALID,0,VALID,93.1348,VALID,0,VALID,23.1159,VALID,356,VALID,0,
2010-05-06, 03:40:04,VALID,997.314,VALID,0,VALID,93.2187,VALID,0,VALID,23.0769,VALID,356,VALID,0,
2010-05-06, 03:41:04,VALID,997.308,VALID,0,VALID,93.2492,VALID,0,VALID,23.0769,VALID,356,VALID,0,
2010-05-06, 03:42:04,VALID,997.333,VALID,0,VALID,93.3331,VALID,0,VALID,23.0964,VALID,356,VALID,0,
2010-05-06, 03:43:04,VALID,997.327,VALID,0,VALID,93.3408,VALID,0,VALID,23.0556,VALID,356,VALID,0,
2010-05-06, 03:44:04,VALID,997.3,VALID,0,VALID,93.3942,VALID,0,VALID,23.0769,VALID,356,VALID,0,
2010-05-06, 03:45:04,VALID,997.303,VALID,0,VALID,93.3866,VALID,0,VALID,23.0556,VALID,356,VALID,0,
2010-05-06, 03:46:04,VALID,997.297,VALID,0,VALID,93.3942,VALID,0,VALID,23.0378,VALID,356,VALID,0,
2010-05-06, 03:47:04,VALID,997.279,VALID,0,VALID,93.4476,VALID,0,VALID,23.0378,VALID,356,VALID,0,
2010-05-06, 03:48:04,VALID,997.28,VALID,0,VALID,93.501,VALID,0,VALID,23.0361,VALID,356,VALID,0,
2010-05-06, 03:49:04,VALID,997.26,VALID,0,VALID,93.5468,VALID,0,VALID,23.0964,VALID,356,VALID,0,
2010-05-06, 03:50:04,VALID,997.288,VALID,0,VALID,93.5544,VALID,0,VALID,23.0964,VALID,356,VALID,0,